This is the latest recevied weather packets stored in our database for station/object G0TQM-11. If no packets are shown the sender has not sent any weather packets the latest 10 day(s).
| Time | Temp. | Humidity | Pressure | Rain* | Wind** | Luminosity | Snow |
|---|---|---|---|---|---|---|---|
| 1777587894 | 15° C | 37% | 1017.2 hPa | - | - | - | - |
| 1777586694 | 15.56° C | 36% | 1017.2 hPa | - | - | - | - |
| 1777585494 | 16.11° C | 35% | 1017.1 hPa | - | - | - | - |
| 1777584294 | 17.22° C | 34% | 1017.1 hPa | - | - | - | - |
| 1777583093 | 18.33° C | 33% | 1016.7 hPa | - | - | - | - |
| 1777581893 | 19.44° C | 33% | 1016.4 hPa | - | - | - | - |
| 1777580693 | 20.56° C | 32% | 1016.4 hPa | - | - | - | - |
| 1777579493 | 22.22° C | 31% | 1016.3 hPa | - | - | - | - |
| 1777578293 | 24.44° C | 30% | 1016.2 hPa | - | - | - | - |
| 1777577093 | 26.67° C | 27% | 1016 hPa | - | - | - | - |
| 1777575893 | 27.78° C | 27% | 1015.8 hPa | - | - | - | - |
| 1777574692 | 30° C | 26% | 1015.7 hPa | - | - | - | - |
| 1777573492 | 31.11° C | 25% | 1015.6 hPa | - | - | - | - |
| 1777572292 | 34.44° C | 23% | 1015.8 hPa | - | - | - | - |
| 1777571092 | 37.22° C | 21% | 1015.8 hPa | - | - | - | - |
| 1777569892 | 37.78° C | 21% | 1015.7 hPa | - | - | - | - |
| 1777568692 | 37.78° C | 21% | 1015.7 hPa | - | - | - | - |
| 1777567491 | 37.78° C | 21% | 1015.7 hPa | - | - | - | - |
| 1777566291 | 37.78° C | 21% | 1015.6 hPa | - | - | - | - |
| 1777565091 | 36.67° C | 22% | 1015.9 hPa | - | - | - | - |
| 1777563891 | 36.11° C | 22% | 1016.1 hPa | - | - | - | - |
| 1777562691 | 35° C | 23% | 1016.1 hPa | - | - | - | - |
| 1777561491 | 35° C | 23% | 1016.3 hPa | - | - | - | - |
| 1777560291 | 34.44° C | 23% | 1016.5 hPa | - | - | - | - |
| 1777559090 | 33.89° C | 23% | 1016.6 hPa | - | - | - | - |
* Rain since midnight (hover to see other rain measurements)
** Current wind speed in m/s (hover to see current wind gust speed)